{"data":{"norad_id":44783,"intl_designator":"2019-076E","name":"NINGXIA-1 5","alt_names":[],"object_type":"PAYLOAD","status":"ACTIVE","operator":null,"country":"PRC","launch_date":"2019-11-13","launch_site_code":"TAISC","launch_vehicle":null,"mission":null,"orbit_class":"UNKNOWN","rcs_meters":null,"size_class":null,"mass_kg":null,"dimensions":null,"purposes":[],"wikipedia_slug":null,"has_3d_model":false,"image_url":null,"decayed_at":null,"tle_current":{"epoch":"2026-09-20T04:16:20.756928Z","epoch_age_seconds":89543,"freshness":"FRESH","line1":"1 44783U 19076E   26263.17801802 -.00000022  00000+0  70053-4 0  9998","line2":"2 44783  45.0044 114.6588 0011068 238.5333 121.4419 14.02096285351100","mean_motion":14.02096285,"eccentricity":0.0011068,"inclination_deg":45.0044,"raan_deg":114.6588,"arg_perigee_deg":238.5333,"mean_anomaly_deg":121.4419,"bstar":7.0053e-5,"rev_number":35110,"period_min":102.70336034732,"perigee_km":878.50456851361,"apogee_km":894.58566885152,"semimajor_km":7264.6821186826,"source":"CELESTRAK","updated_at":"2026-09-20T09:00:14.542822Z"}}}